Location: Holbach
(51.5399°N, 10.6036°E)
Time: 10:22:53
(UTC+00:00)

ATLAS CENTAUR R/B - Pass Details

Date: 19 January 2021
Orbit: 471 x 674 km, 64.6° (Epoch: 24 February)

Event Time Altitude Azimuth Distance (km) Brightness Sun altitude
Rises 05:47:17 0° 180° (S) 2,530 4.9 -12.9°
Reaches altitude 10° 05:49:53 10° 161° (SSE) 1,640 4.2 -12.5°
Maximum altitude 05:52:26 18° 117° (ESE) 1,215 4.3 -12.1°
Drops below altitude 10° 05:54:59 10° 72° (ENE) 1,641 4.6 -11.8°
Sets 05:57:34 0° 53° (NE) 2,530 5.2 -11.4°
